Preview of NWS' New Version of Forecast
This preview is not operational and should not be used for support decisions.

Regional Weather Roundup (RWR)

Issued by National Weather Service (NWS)

                            
000
ASUS43 KTOP 211759
RWRKS 

WEATHER ROUNDUP FOR KANSAS
NATIONAL WEATHER SERVICE GOODLAND KS
100 PM CDT WED AUG 21 2019

NOTE:  "FAIR" INDICATES FEW OR NO CLOUDS BELOW 12,000 FEET WITH NO
SIGNIFICANT WEATHER AND/OR OBSTRUCTIONS TO VISIBILITY.

KSZ001>006-013>018-027>032-041>047-211900-
NORTHWEST KANSAS
  
CITY           SKY/WX    TMP DP  RH WIND       PRES   REMARKS
GOODLAND         N/A    N/A N/A N/A MISG      30.11F                  
HAYS           SUNNY     82  67  60 S9        29.87F                  
HILL CITY      SUNNY     77  66  68 CALM      30.04R                  
6HR MIN TEMP:  67; 6HR MAX TEMP:  77; 6HR PCP:  0.32;                

RUSSELL        SUNNY     82  66  58 SE14      29.97F                  
6HR MIN TEMP:  68; 6HR MAX TEMP:  82; 6HR PCP:  0.28;                

$$

KSZ061>065-074>080-084>089-211900-
SOUTHWEST KANSAS
  
CITY           SKY/WX    TMP DP  RH WIND       PRES   REMARKS
DODGE CITY     SUNNY     84  64  50 SE20G31   30.05F                  
6HR MIN TEMP:  70; 6HR MAX TEMP:  84; 6HR PCP: TRACE;                

GARDEN CITY    SUNNY     85  63  47 SE15G26   30.04F                  
6HR MIN TEMP:  69; 6HR MAX TEMP:  85;                                

GREAT BEND     SUNNY     76  67  73 SE18      30.01F                  
LIBERAL        SUNNY     96  61  31 S10       30.02F HX  96           
$$

KSZ066>073-081>083-090>101-211900-
SOUTHEAST KANSAS
  
CITY           SKY/WX    TMP DP  RH WIND       PRES   REMARKS
CHANUTE        MOSUNNY   91  74  57 S7        30.04F HX 100           
6HR MIN TEMP:  78; 6HR MAX TEMP:  91; 6HR PCP:  0.01;                

COFFEYVILLE    SUNNY     90  75  61 SE6       30.02F HX 100           
6HR MIN TEMP:  76; 6HR MAX TEMP:  90;                                

HUTCHINSON     PTSUNNY   79  67  66 E10       30.05F                  
6HR MIN TEMP:  74; 6HR MAX TEMP:  84;                                

MEDICINE LODGE   N/A     89  67  47 NE22G31   30.04S                  
NEWTON         SUNNY     78  72  81 NE8       30.08F                  
PARSONS        SUNNY     88  77  69 SE6       30.04F HX 100           
6HR MIN TEMP:  76; 6HR MAX TEMP:  89;                                

WICHITA INTL   CLOUDY    88  71  57 N15G24    30.05F                  
6HR MIN TEMP:  75; 6HR MAX TEMP:  92;                                

WICHITA JABRA  SUNNY     88  72  58 N8        30.06F                  
6HR MIN TEMP:  77; 6HR MAX TEMP:  88;                                

WICHITA MCCONL PTSUNNY   89  66  46 NE9       30.05F                  
WINFIELD       SUNNY     92  72  51 VRB3      30.03F HX  99           
6HR MIN TEMP:  75; 6HR MAX TEMP:  92;                                

$$

KSZ007>012-019>026-033>040-048>060-102>105-211900-
NORTHEAST KANSAS
  
CITY           SKY/WX    TMP DP  RH WIND       PRES   REMARKS
CONCORDIA      SUNNY     77  72  84 E7        30.00F                  
6HR MIN TEMP:  71; 6HR MAX TEMP:  77; 6HR PCP:  0.31;                

EMPORIA        MOSUNNY   84  71  65 NW6       30.07S                  
6HR MIN TEMP:  68; 6HR MAX TEMP:  84; 6HR PCP:  0.06;                

LAWRENCE       MOSUNNY   84  72  67 NW17      30.07R                  
6HR MIN TEMP:  72; 6HR MAX TEMP:  85; 6HR PCP: TRACE;                

MANHATTAN      LGT RAIN  77  69  76 E8        30.06F                  
6HR MIN TEMP:  70; 6HR MAX TEMP:  78; 6HR PCP:  0.01;                

OLATHE IND     PTSUNNY   83  71  67 SE7       30.05S                  
6HR MIN TEMP:  72; 6HR MAX TEMP:  83;                                

OLATHE EXE     PTSUNNY   82  71  69 SE6       30.04R                  
6HR MIN TEMP:  71; 6HR MAX TEMP:  83; 6HR PCP:  0.02;                

SALINA         LGT RAIN  73  66  78 SE13      29.97F                  
6HR MIN TEMP:  71; 6HR MAX TEMP:  79; 6HR PCP:  0.07;                

TOPEKA BILLARD MOSUNNY   79  70  74 NW8       30.06R                  
6HR MIN TEMP:  71; 6HR MAX TEMP:  81; 6HR PCP:  0.04;                

TOPEKA FORBES  LGT RAIN  80  71  74 NW15      30.07R                  
6HR MIN TEMP:  70; 6HR MAX TEMP:  83; 6HR PCP:  0.47;                

$$